Regional Weather Roundup
Issued by NWS

Home | Current Version | Previous Version | Graphics & Text | Print | Product List | Glossary On
Versions: 1 2 3 4 5 6 7 8 9 10 11 12 13 14 15 16 17 18 19 20 21 22 23 24 25 26 27 28 29 30 31 32 33 34 35 36 37 38 39 40 41 42 43 44 45 46 47 48 49 50
000
ASUS43 KLSX 111107
RWRMO

WEATHER SUMMARY FOR MISSOURI
NATIONAL WEATHER SERVICE SPRINGFIELD MO
500 AM CST MON DEC 11 2017

NOTE: "FAIR" INDICATES FEW OR NO CLOUDS BELOW 12,000 FEET WITH NO
       SIGNIFICANT WEATHER AND/OR OBSTRUCTIONS TO VISIBILITY.
       CURRENT SKY AND/OR WEATHER CONDITIONS ARE NOT AVAILABLE FOR
       CHILLICOTHE AND FARMINGTON.

MOZ001>031-035>038-043-044-053-054-111200-
...NORTHERN AND WESTERN MISSOURI...

CITY           SKY/WX    TMP DP  RH WIND       PRES   REMARKS
KANSAS CTY INT CLEAR     36  20  52 W9        29.98F WCI  29
KANSAS C DTWN  CLEAR     35  23  61 W5        29.99F
LEE`S SUMMIT   CLEAR     41  20  43 SW9       29.99F
ST JOSEPH      PTCLDY    27  22  81 S10       29.96F WCI  17
CHILLICOTHE      N/A     34  25  69 S6        29.95F WCI  29
KIRKSVILLE     CLOUDY    34  27  75 SW5       29.95F WCI  30

$$
MOZ066>068-077>081-088>096-101>105-111200-
...SOUTHWEST MISSOURI...

CITY           SKY/WX    TMP DP  RH WIND       PRES   REMARKS
SPRINGFIELD    CLEAR     32  22  66 S9        30.08F WCI  24
JOPLIN         CLEAR     36  25  64 SW9       30.10F WCI  29
BRANSON        CLEAR     45  19  36 SW7       30.12F

$$
MOZ032>034-039>042-045>050-055>058-069>072-111200-
...CENTRAL MISSOURI...

CITY           SKY/WX    TMP DP  RH WIND       PRES   REMARKS
COLUMBIA       CLOUDY    32  24  72 S9        30.00F WCI  24
JEFFERSON CITY PTCLDY    28  22  78 CALM      30.03F
ROLLA          CLOUDY    37  25  61 SW13      30.03F WCI  29
SEDALIA        CLEAR     40  26  57 SW14      29.99F
WHITEMAN AFB   CLEAR     31  23  72 S9        29.95F WCI  23
WARRENSBURG    CLEAR     34  23  64 S8        30.00S WCI  27
OSAGE BEACH    CLEAR     31  24  75 SE3       30.04F

$$
MOZ051-052-059>065-111200-
...EAST CENTRAL MISSOURI...

CITY           SKY/WX    TMP DP  RH WIND       PRES   REMARKS
ST LOUIS INTL  MOCLDY    35  26  69 SW3       30.06F
SPIRIT OF STL  PTCLDY    25  23  92 CALM      30.05F
ST CHARLES     PTCLDY    27  25  92 E3        30.06S

$$
MOZ072>076-082>087-097>100-106>115-111200-
...SOUTH CENTRAL AND SOUTHEAST MISSOURI...

CITY           SKY/WX    TMP DP  RH WIND       PRES   REMARKS
CAPE GIRARDEAU CLEAR     25  22  88 NW3       30.10F
FARMINGTON     CLEAR     27  23  85 NW3       30.08F
POPLAR BLUFF   CLEAR     27  25  92 NW5       30.12F WCI  22
WEST PLAINS    CLEAR     35  23  61 SW7       30.10F WCI  29

$$



USA.gov is the U.S. government's official web portal to all federal, state and local government web resources and services.